FW3968 Weather Reports


Display with metric or nautical units.
time (UTC)temp
F
wind
direction
speed
MPH
gust
MPH
rain 1hr
in
rain 24hr
in
rain mn
in
humidity
%
barometer
mb
20260508080608 40 325 0.0 0.0 0.00 0.00 0.00 70 1006.0
20260508075609 40 335 1.0 3.0 0.00 0.00 0.00 69 1006.0
20260508074610 41 334 1.0 3.0 0.00 0.00 0.00 68 1005.9
20260508073611 41 329 1.0 3.0 0.00 0.00 0.00 66 1005.7
20260508072610 41 332 3.0 4.0 0.00 0.00 0.00 66 1005.8
20260508071709 42 351 1.0 3.0 0.00 0.00 0.00 65 1005.9
20260508070808 42 344 2.0 4.0 0.00 0.00 0.00 65 1005.8
20260508065809 42 349 2.0 4.0 0.00 0.00 0.00 65 1005.9
20260508063808 42 323 2.0 5.0 0.00 0.00 0.00 63 1005.9
20260508061810 43 332 2.0 5.0 0.00 0.00 0.00 62 1006.1
20260508060809 43 334 3.0 7.0 0.00 0.00 0.00 61 1006.1
20260508055809 43 335 3.0 5.0 0.00 0.00 0.00 61 1006.4
20260508053809 43 22 0.0 0.0 0.00 0.00 0.00 61 1006.4
20260508052808 43 349 2.0 4.0 0.00 0.00 0.00 60 1006.3
20260508051907 43 322 4.0 7.0 0.00 0.00 0.00 60 1006.4
20260508045911 42 360 0.0 0.0 0.00 0.00 0.00 62 1006.5
20260508045008 43 360 0.0 0.0 0.00 0.00 0.00 60 1006.5
20260508043109 42 333 4.0 4.0 0.00 0.00 0.00 64 1006.8
20260508042110 41 348 1.0 2.0 0.00 0.00 0.00 65 1006.9
20260508040208 42 180 0.0 0.0 0.00 0.00 0.00 64 1007.1
20260508035216 41 180 0.0 0.0 0.00 0.00 0.00 66 1007.1
20260508034216 41 178 3.0 6.0 0.00 0.00 0.00 67 1007.2
20260508033216 42 157 1.0 1.0 0.00 0.00 0.00 65 1007.3
20260508032218 0 0 0.0 0.0 0.00 0.00 0.00 100
20260508031216 0 0 0.0 0.0 0.00 0.00 0.00 100
20260508030217 0 0 0.0 0.0 0.00 0.00 0.00 100
20260508025218 44 225 0.0 0.0 0.00 0.00 0.00 58 1006.8
20260508024216 44 292 1.0 2.0 0.00 0.00 0.00 61 1007.0
20260508023234 44 292 0.0 1.0 0.00 0.00 0.00 57 1006.7
20260508022217 44 157 0.0 0.0 0.00 0.00 0.00 56 1006.9
20260508020317 45 157 0.0 0.0 0.00 0.00 0.00 56 1006.8
20260508014417 47 135 1.0 2.0 0.00 0.00 0.00 51 1007.2
20260508013418 48 337 2.0 2.0 0.00 0.00 0.00 48 1007.1
20260508012418 48 337 0.0 1.0 0.00 0.00 0.00 48 1007.0
20260508011517 49 360 2.0 3.0 0.00 0.00 0.00 46 1007.1
20260508010517 49 7 3.0 4.0 0.00 0.00 0.00 47 1007.2
20260508005519 49 342 2.0 4.0 0.00 0.00 0.00 46 1007.0
20260508004518 50 312 2.0 4.0 0.00 0.00 0.00 46 1006.9
20260508003517 50 332 3.0 6.0 0.00 0.00 0.00 46 1006.9
20260508001516 51 345 5.0 8.0 0.00 0.00 0.00 44 1006.7
20260508000516 52 357 6.0 10.0 0.00 0.00 0.00 44 1006.5
20260507235516 52 324 5.0 11.0 0.00 0.00 0.00 44 1006.4
20260507234518 53 7 10.0 19.0 0.00 0.00 0.00 44 1006.0
20260507233516 53 326 5.0 8.0 0.00 0.00 0.00 46 1005.7
20260507232517 54 349 6.0 10.0 0.00 0.00 0.00 47 1005.5
20260507231518 55 357 10.0 15.0 0.00 0.00 0.00 50 1005.1
20260507225516 56 349 9.0 14.0 0.00 0.00 0.00 52 1004.6
20260507224519 57 348 4.0 6.0 0.00 0.00 0.00 54 1004.4
20260507223616 57 20 5.0 11.0 0.00 0.00 0.00 58 1004.2
20260507222616 56 32 6.0 11.0 0.00 0.00 0.00 61 1004.2
20260507221619 56 22 3.0 4.0 0.00 0.00 0.00 61 1004.1
20260507220716 57 32 4.0 6.0 0.00 0.00 0.00 61 1003.9
20260507215717 57 25 4.0 6.0 0.00 0.00 0.00 60 1004.0
20260507214816 57 341 3.0 4.0 0.00 0.00 0.00 59 1004.0
20260507213834 58 328 4.0 6.0 0.00 0.00 0.00 58 1003.9
20260507212917 58 18 6.0 11.0 0.00 0.00 0.00 58 1003.8
20260507211919 58 358 5.0 8.0 0.00 0.00 0.00 55 1003.7
20260507211016 59 20 9.0 13.0 0.00 0.00 0.00 52 1003.6
20260507210018 59 332 2.0 7.0 0.00 0.00 0.00 51 1003.6
20260507204117 59 341 3.0 5.0 0.00 0.00 0.00 51 1003.4
20260507203117 59 343 3.0 6.0 0.00 0.00 0.00 49 1003.2
20260507201216 59 340 6.0 12.0 0.00 0.00 0.00 52 1003.1
20260507195317 58 359 4.0 6.0 0.00 0.00 0.00 54 1003.2
20260507194415 58 313 4.0 7.0 0.00 0.00 0.00 53 1003.4
20260507193418 59 351 5.0 8.0 0.00 0.00 0.00 52 1003.3
20260507192417 60 344 5.0 10.0 0.00 0.00 0.00 52 1003.4
20260507191418 59 343 5.0 7.0 0.00 0.00 0.00 52 1003.3
20260507190419 59 335 6.0 8.0 0.00 0.00 0.00 52 1003.3
20260507185417 60 342 6.0 9.0 0.00 0.00 0.00 47 1003.4
20260507184419 63 324 4.0 5.0 0.00 0.00 0.00 43 1003.4
20260507183434 62 78 1.0 3.0 0.00 0.00 0.00 43 1003.5
20260507182419 63 327 6.0 12.0 0.00 0.00 0.00 43 1003.6
20260507181416 62 146 6.0 11.0 0.00 0.00 0.00 45 1003.5
20260507180417 60 330 1.0 4.0 0.00 0.00 0.00 45 1003.8
20260507175517 60 335 4.0 6.0 0.00 0.00 0.00 47 1003.8
20260507174616 62 123 2.0 5.0 0.00 0.00 0.00 46 1003.9
20260507173618 62 141 5.0 10.0 0.00 0.00 0.00 46 1004.0
20260507172617 63 156 7.0 12.0 0.00 0.00 0.00 45 1003.8
20260507171616 62 178 3.0 4.0 0.00 0.00 0.00 47 1004.0
20260507170632 60 168 6.0 8.0 0.00 0.00 0.00 48 1004.0
20260507165719 60 359 5.0 8.0 0.00 0.00 0.00 50 1004.2
20260507162918 59 314 2.0 4.0 0.00 0.00 0.00 50 1004.8
20260507161933 58 29 2.0 4.0 0.00 0.00 0.00 53 1005.0
20260507160017 58 315 4.0 7.0 0.00 0.00 0.00 55 1005.0
20260507155017 58 340 2.0 4.0 0.00 0.00 0.00 55 1005.0
20260507154017 58 35 0.0 2.0 0.00 0.00 0.00 58 1005.2
20260507152016 57 353 2.0 3.0 0.00 0.00 0.00 60 1005.4
20260507151017 56 108 4.0 6.0 0.00 0.00 0.00 59 1005.6
20260507150015 57 337 0.0 2.0 0.00 0.00 0.00 61 1005.8
20260507145021 0 0 0.0 0.0 0.00 0.00 0.00 100
20260507144022 56 135 2.0 2.0 0.00 0.00 0.00 63 1005.9
20260507143021 55 32 4.0 5.0 0.00 0.00 0.00 64 1006.0
20260507142038 54 8 1.0 3.0 0.00 0.00 0.00 66 1006.2
20260507141020 54 360 4.0 4.0 0.00 0.00 0.00 67 1006.1
20260507135022 53 319 3.0 4.0 0.00 0.00 0.00 71 1006.3
20260507134020 52 292 0.0 2.0 0.00 0.00 0.00 74 1006.2
20260507133119 52 35 5.0 9.0 0.00 0.00 0.00 75 1006.3
20260507132122 51 16 3.0 7.0 0.00 0.00 0.00 76 1006.4
20260507131121 52 35 9.0 12.0 0.00 0.00 0.00 77 1006.4
20260507130121 51 329 4.0 6.0 0.00 0.00 0.00 78 1006.4
20260507125219 50 299 1.0 2.0 0.00 0.00 0.00 79 1006.4
20260507124222 50 330 4.0 6.0 0.00 0.00 0.00 79 1006.7
20260507123238 50 342 4.0 6.0 0.00 0.00 0.00 81 1006.6
20260507122223 50 336 4.0 6.0 0.00 0.00 0.00 82 1006.7
20260507120322 49 348 3.0 5.0 0.00 0.00 0.00 84 1006.9
20260507115320 48 343 3.0 3.0 0.00 0.00 0.00 86 1006.5
20260507114320 48 325 3.0 7.0 0.00 0.00 0.00 88 1006.9
20260507113320 48 346 3.0 5.0 0.00 0.00 0.00 89 1006.9
20260507112321 48 346 1.0 3.0 0.00 0.00 0.00 89 1006.8
20260507111321 47 345 2.0 4.0 0.00 0.00 0.00 90 1006.3
20260507110319 47 3 5.0 6.0 0.00 0.00 0.00 91 1006.3
20260507105321 47 327 3.0 6.0 0.00 0.00 0.00 93 1006.5
20260507104321 46 342 4.0 9.0 0.00 0.00 0.00 94 1006.1
20260507103420 46 313 0.0 2.0 0.00 0.00 0.00 95 1006.3
20260507102520 46 326 2.0 3.0 0.00 0.00 0.00 96 1006.0
20260507101520 46 360 1.0 1.0 0.00 0.00 0.00 96 1006.0
20260507100523 46 316 0.0 1.0 0.00 0.00 0.00 96 1006.2
20260507095522 46 337 0.0 1.0 0.00 0.00 0.00 96 1006.2
20260507093622 46 348 1.0 3.0 0.00 0.00 0.00 95 1006.0
20260507093520 46 337 1.0 2.0 0.00 0.00 0.00 96 1006.2
20260507092522 46 360 0.0 0.0 0.00 0.00 0.00 96 1006.3
20260507091619 46 360 0.0 2.0 0.00 0.00 0.00 96 1005.7
20260507090620 47 337 0.0 1.0 0.00 0.00 0.00 96 1005.6
20260507085620 47 351 2.0 3.0 0.00 0.00 0.00 96 1005.6
20260507084621 47 322 1.0 2.0 0.00 0.00 0.00 95 1005.6
20260507083719 47 328 3.0 4.0 0.00 0.00 0.00 97 1005.6
20260507082720 47 327 3.0 7.0 0.00 0.00 0.00 97 1005.7